STARLINK-11626

Satellite information

Favourite Embed

Satellite Type and Status

PAYLOADIN ORBIT

Key statistics

Satellite STARLINK-11626 at a glance.

Uptime

244

Days in orbit

Revolutions

≈ 15.7

Per day

Orbit

LEO

Low Earth Orbit

Inclination

43.0

Latest

Satellite identification and parameters

Extended collection of information and parameters for STARLINK-11626.

Object identification

Identified? True

Debris? False

Object name: STARLINK-11626

International designator: 2025-075J

Object number (NORAD): 63556

Object ID (CCSDS): 63556

Country: UNITED STATES OF AMERICA (US)

Current information (Y/N): Y

RCS size: LARGE

Orbital parameters

Period: 91.67 minutes

Inclination: 43.0 deg

SMA: 6734.613 km

Apoapsis: 358.777 km

Periapsis: 354.18 km

RAAN: 321.1969 deg

Eccentricy: 0.0003413

Argument of periapsis: 283.3739 deg

Mean anomaly: 76.6748 deg

Mean motion: 15.70846532 rev/day

Mean motion (dot): 0.00265637 rev/day2

B* drag term: 0.0020074392 1/REarth

Two-line elements (TLE)

Creation date: Dec. 12, 2025, 10:14 a.m.

Reference frame: TEME

Reference center: EARTH

Epoch: Dec. 12, 2025, 6:12 a.m. UTC

TLE line 0: 0 STARLINK-11626

TLE line 1: 1 63556U 25075J 25346.25886717 .00265637 00000-0 20074-2 0 9992

TLE line 2: 2 63556 43.0000 321.1969 0003413 283.3739 76.6748 15.70846532 39495

Live tracking on map

Real-time ground track for satellite STARLINK-11626.

In-orbit conjunctions

There are no conjunctions computed for STARLINK-11626, at the moment. Check back to stay up to date, as we update our databases every day.

Go to all conjunctions

Associated space launch

A batch of 21 satellites for the Starlink mega-constellation - SpaceX's project for space-based Internet communication system.

STARLINK-11626 was lifted into orbit during the mission ‘Falcon 9 Block 5 | Starlink Group 12-17’, on board a Falcon 9 space rocket.

The launch took place on April 13, 2025, 12:53 a.m. from Launch Complex 39A.

For more information about the launch, click the button.

Launch to space Falcon 9 Block 5 | Starlink Group 12-17
Falcon 9 Block 5 | Starlink Group 12-17

Agency: SpaceX

Status: Launch Successful

Launch date: April 13, 2025, 12:53 a.m. UTC

Rocket: Falcon 9

Launch pad: Launch Complex 39A

Location: Kennedy Space Center, FL, USA

...

Latest news about this satellite

News about space launch
Live coverage: SpaceX to launch 21 Starlink satellites on Falcon 9 rocket from the Kennedy Space Center

The Starlink 12-17 mission will carry 13 Starlink V2 Mini satellites that feature Direct to Cell capabilities. Liftoff from pad 39A at NASA’s Kennedy Space Center is targeting Friday, April 11, at 1:24 a.m. (0524 UTC).

News about space launch
Launch Roundup: Project Kuiper becomes operational; Falcon 9 to launch three missions

During this active week of launches, Atlas V will launch satellites for Amazon’s Project Kuiper,… The post Launch Roundup: Project Kuiper becomes operational; Falcon 9 to launch three missions appeared first on NASASpaceFlight.com.


Newsletter sign-up

Weekly statistics, charts and insights to help you stay on top of the space industry.